CZ-4B DEB (43659 NORAD) Tracking and Keplerian Element Data

This shows tracking and keplerian element data for the satellite.

Feedback or suggestion? Click here.




ElementValue
Catalog43659
NameCZ-4B DEB
Epoch Orbit290
Epoch Day318.81974656
Epoch Year2018
RAAN324.2644
Inclination99.2868
Eccentricity0.0062365
Argument of Perigee261.6865
Mean Anonmoly97.645
Mean Motion13.94797387
Decay Rate0.00045445
L11 43659U 18081C 18318.81974656 .00045445 00000-0 33178-1 0 9997
L22 43659 99.2868 324.2644 0062365 261.6865 97.6450 13.94797387 2902

Live tracking and technical data element details for CZ-4B DEB (NORAD 43659). CZ-4B DEB can be tracked NOW for your location showing map with azimuth and elevation plus other details from your city location.

Track the satellite on the map from your city or location and see movement details for azimuth, elevation, latitude, longitude, range, height, and movement on the map or in text.







IsCatalogInMostPopularTable: catalog: 43659, numindb: 11
Update: records affected: 1



GetName: 43659 CZ-4B DEB

Hit Count: updated at: Fri, 16 Nov 2018 03:10:34 GMT